Weather History for KHNZ - November, 2013

Change the Weather History Date:

Wednesday, November 13, 2013

  Actual Average (KTDF) Record (KTDF)
Temperature  
Mean Temperature 34 °F -  
Max Temperature 43 °F 60 °F 78 °F (1989)
Min Temperature 25 °F 35 °F 23 °F (2013)
Degree Days  
Heating Degree Days 31    
Moisture  
Dew Point 14 °F    
Average Humidity 49    
Maximum Humidity 82    
Minimum Humidity 27    
Precipitation  
Precipitation 0.00 in - - ()
Sea Level Pressure  
Sea Level Pressure 30.46 in    
Wind  
Wind Speed 5 mph (NW)    
Max Wind Speed 13 mph    
Max Gust Speed 18 mph    
Visibility 10 miles    
Events      
Averages and records for this station are not official NWS values.
T = Trace of Precipitation, MM = Missing Value Source: NWS Daily Summary

Daily Weather History Graph

Daily Weather History Graph

Search for Another Location

Airport or City:

Trip Planner

Search our weather history database for the weather conditions in past years. The results will help you decide how hot, cold, wet, or windy it might be!

Date:

Astronomy

Nov. 13, 2013 Rise Set
Actual Time 6:49 AM EST 5:06 PM EST
Civil Twilight 6:22 AM EST 5:34 PM EST
Nautical Twilight 5:51 AM EST 6:05 PM EST
Astronomical Twilight 5:20 AM EST 6:35 PM EST
Moon 2:47 PM EST (11/13) 2:47 AM EST (11/13)
Length of Visible Light 11h 12m
Length of Day
10h 17m
Waxing Gibbous, 84% of the Moon is Illuminated
Nov 13
Waxing Gibbous
Nov 17
Full
Nov 25
Last Quarter
Dec 2
New
Dec 9
First Quarter

Hourly Weather History & Observations

Time (EST) Temp. Windchill Dew Point Humidity Pressure Visibility Wind Dir Wind Speed Gust Speed Precip Events Conditions
12:15 AM 32.0 °F 27.5 °F 12.6 °F 45% 30.43 in 10.0 mi NNW 4.6 mph - N/A   Clear
12:35 AM 31.5 °F 25.8 °F 12.2 °F 45% 30.42 in 10.0 mi North 5.8 mph - N/A   Clear
12:55 AM 30.7 °F 24.9 °F 12.2 °F 46% 30.42 in 10.0 mi NNW 5.8 mph - N/A   Clear
1:15 AM 30.2 °F 25.4 °F 12.0 °F 47% 30.42 in 10.0 mi NNW 4.6 mph - N/A   Clear
1:35 AM 29.8 °F 26.3 °F 13.1 °F 50% 30.42 in 10.0 mi NNW 3.5 mph - N/A   Clear
1:55 AM 29.3 °F 25.6 °F 12.9 °F 51% 30.42 in 10.0 mi NNW 3.5 mph - N/A   Clear
2:15 AM 29.1 °F - 12.4 °F 50% 30.42 in 10.0 mi Calm Calm - N/A   Clear
2:35 AM 28.4 °F 23.3 °F 12.6 °F 52% 30.43 in 10.0 mi NNW 4.6 mph - N/A   Clear
2:55 AM 28.8 °F 23.7 °F 12.2 °F 50% 30.43 in 10.0 mi NNW 4.6 mph - N/A   Clear
3:15 AM 28.4 °F 23.3 °F 12.7 °F 52% 30.43 in 10.0 mi NNW 4.6 mph - N/A   Clear
3:35 AM 28.4 °F 22.2 °F 12.7 °F 52% 30.43 in 10.0 mi NNW 5.8 mph - N/A   Clear
3:55 AM 28.6 °F 23.5 °F 12.9 °F 52% 30.43 in 10.0 mi NW 4.6 mph - N/A   Clear
4:15 AM 28.8 °F 23.7 °F 12.2 °F 50% 30.43 in 10.0 mi NW 4.6 mph - N/A   Clear
4:35 AM 28.6 °F - 12.2 °F 50% 30.43 in 10.0 mi Calm Calm - N/A   Clear
4:55 AM 28.0 °F 24.2 °F 12.2 °F 52% 30.44 in 10.0 mi WNW 3.5 mph - N/A   Clear
5:15 AM 27.3 °F - 13.1 °F 55% 30.45 in 10.0 mi Calm Calm - N/A   Clear
5:35 AM 27.5 °F 23.6 °F 13.3 °F 55% 30.45 in 10.0 mi NW 3.5 mph - N/A   Clear
5:55 AM 27.3 °F - 13.8 °F 57% 30.45 in 10.0 mi Calm Calm - N/A   Clear
6:15 AM 26.8 °F - 13.5 °F 57% 30.47 in 10.0 mi Calm Calm - N/A   Clear
6:35 AM 27.1 °F 23.2 °F 13.6 °F 57% 30.47 in 10.0 mi NW 3.5 mph - N/A   Clear
6:55 AM 26.6 °F 22.6 °F 14.2 °F 60% 30.48 in 10.0 mi NW 3.5 mph - N/A   Clear
7:15 AM 27.3 °F - 14.5 °F 59% 30.49 in 10.0 mi Calm Calm - N/A   Clear
7:35 AM 28.0 °F 22.8 °F 15.6 °F 60% 30.49 in 10.0 mi North 4.6 mph - N/A   Clear
7:55 AM 28.8 °F 25.0 °F 16.5 °F 60% 30.50 in 10.0 mi North 3.5 mph - N/A   Clear
8:15 AM 30.0 °F 22.4 °F 16.5 °F 57% 30.51 in 10.0 mi North 8.1 mph - N/A   Clear
8:35 AM 31.8 °F 25.4 °F 17.2 °F 55% 30.51 in 10.0 mi North 6.9 mph - N/A   Clear
8:55 AM 32.5 °F 24.2 °F 17.6 °F 54% 30.52 in 10.0 mi North 10.4 mph - N/A   Clear
9:15 AM 34.0 °F 26.0 °F 17.2 °F 50% 30.52 in 10.0 mi NNW 10.4 mph 16.1 mph N/A   Clear
9:35 AM 35.1 °F 26.4 °F 16.9 °F 48% 30.52 in 10.0 mi NNW 12.7 mph 16.1 mph N/A   Clear
9:55 AM 36.5 °F 29.2 °F 15.3 °F 42% 30.52 in 10.0 mi North 10.4 mph - N/A   Clear
10:15 AM 37.0 °F 29.3 °F 13.3 °F 38% 30.52 in 10.0 mi North 11.5 mph 17.3 mph N/A   Clear
10:35 AM 37.8 °F 31.3 °F 13.3 °F 37% 30.52 in 10.0 mi North 9.2 mph - N/A   Clear
10:55 AM 38.1 °F 32.3 °F 12.0 °F 34% 30.52 in 10.0 mi NNW 8.1 mph - N/A   Clear
11:15 AM 38.7 °F 35.2 °F 12.9 °F 35% 30.52 in 10.0 mi NW 4.6 mph - N/A   Clear
11:35 AM 39.2 °F 35.9 °F 12.2 °F 33% 30.51 in 10.0 mi NW 4.6 mph 17.3 mph N/A   Clear
11:55 AM 40.1 °F 34.1 °F 11.7 °F 31% 30.50 in 10.0 mi North 9.2 mph 16.1 mph N/A   Clear
12:15 PM 40.3 °F 33.4 °F 11.1 °F 30% 30.49 in 10.0 mi NNW 11.5 mph 18.4 mph N/A   Clear
12:35 PM 41.0 °F 34.7 °F 10.4 °F 29% 30.47 in 10.0 mi North 10.4 mph - N/A   Clear
12:55 PM 41.2 °F 34.5 °F 10.8 °F 29% 30.46 in 10.0 mi North 11.5 mph - N/A   Clear
1:15 PM 41.9 °F 35.4 °F 11.1 °F 28% 30.46 in 10.0 mi NW 11.5 mph 16.1 mph N/A   Clear
1:35 PM 42.6 °F 37.8 °F 11.3 °F 28% 30.46 in 10.0 mi NNW 8.1 mph - N/A   Clear
1:55 PM 43.0 °F 37.7 °F 10.9 °F 27% 30.46 in 10.0 mi NNW 9.2 mph - N/A   Clear
2:15 PM 43.2 °F 37.9 °F 11.1 °F 27% 30.45 in 10.0 mi North 9.2 mph 18.4 mph N/A   Clear
2:35 PM 43.2 °F 40.5 °F 10.9 °F 27% 30.45 in 10.0 mi NNW 4.6 mph 8.1 mph N/A   Clear
2:55 PM 43.9 °F 39.3 °F 11.5 °F 27% 30.45 in 10.0 mi NW 8.1 mph - N/A   Clear
3:15 PM 43.7 °F 40.3 °F 11.3 °F 27% 30.45 in 10.0 mi NNW 5.8 mph - N/A   Clear
3:35 PM 43.0 °F 40.3 °F 11.1 °F 27% 30.45 in 10.0 mi NW 4.6 mph - N/A   Clear
3:55 PM 42.8 °F 39.3 °F 11.3 °F 28% 30.45 in 10.0 mi NW 5.8 mph - N/A   Clear
4:15 PM 42.3 °F 38.6 °F 10.6 °F 27% 30.45 in 10.0 mi NW 5.8 mph - N/A   Clear
4:35 PM 41.4 °F - 10.9 °F 29% 30.45 in 10.0 mi Calm Calm - N/A   Clear
4:55 PM 40.3 °F 38.2 °F 10.9 °F 30% 30.46 in 10.0 mi NW 3.5 mph - N/A   Clear
5:15 PM 39.7 °F - 11.3 °F 31% 30.46 in 10.0 mi Calm Calm - N/A   Clear
5:35 PM 39.2 °F - 11.3 °F 32% 30.47 in 10.0 mi Calm Calm - N/A   Clear
5:55 PM 35.2 °F - 16.3 °F 46% 30.47 in 10.0 mi Calm Calm - N/A   Clear
6:15 PM 32.9 °F - 18.0 °F 54% 30.47 in 10.0 mi Calm Calm - N/A   Clear
6:35 PM 32.9 °F - 16.9 °F 52% 30.47 in 10.0 mi Calm Calm - N/A   Clear
6:55 PM 31.5 °F - 18.9 °F 60% 30.47 in 10.0 mi Calm Calm - N/A   Clear
7:15 PM 29.8 °F 26.3 °F 19.6 °F 66% 30.47 in 10.0 mi West 3.5 mph - N/A   Clear
7:35 PM 30.9 °F - 19.0 °F 61% 30.47 in 10.0 mi Calm Calm - N/A   Clear
7:55 PM 30.9 °F 26.2 °F 18.1 °F 59% 30.47 in 10.0 mi SSW 4.6 mph - N/A   Clear
8:15 PM 29.7 °F - 19.0 °F 65% 30.47 in 10.0 mi Calm Calm - N/A   Clear
8:35 PM 26.6 °F 22.6 °F 20.1 °F 77% 30.47 in 10.0 mi SSW 3.5 mph - N/A   Clear
8:55 PM 29.1 °F - 19.8 °F 68% 30.47 in 10.0 mi Calm Calm - N/A   Clear
9:15 PM 25.9 °F - 20.8 °F 81% 30.46 in 10.0 mi Calm Calm - N/A   Clear
9:35 PM 26.2 °F 19.6 °F 19.9 °F 77% 30.46 in 10.0 mi SW 5.8 mph - N/A   Clear
9:55 PM 29.5 °F 23.4 °F 18.7 °F 64% 30.46 in 10.0 mi WSW 5.8 mph - N/A   Clear
10:15 PM 27.0 °F 21.6 °F 20.3 °F 76% 30.45 in 10.0 mi SW 4.6 mph - N/A   Clear
10:35 PM 27.1 °F 23.2 °F 19.0 °F 72% 30.45 in 10.0 mi SW 3.5 mph - N/A   Clear
10:55 PM 27.1 °F - 18.9 °F 71% 30.45 in 10.0 mi Calm Calm - N/A   Clear
11:15 PM 26.2 °F 22.1 °F 19.6 °F 76% 30.45 in 10.0 mi West 3.5 mph - N/A   Clear
11:35 PM 25.7 °F 21.5 °F 19.4 °F 77% 30.45 in 10.0 mi West 3.5 mph - N/A   Clear
11:55 PM 25.2 °F 19.5 °F 20.3 °F 82% 30.45 in 10.0 mi SW 4.6 mph - N/A   Clear